Flag for France Weather past 2 weeks in Nîmes, France

Now
73 °F

Sunny.


Feels Like: 74 °F
Forecast: 62 / 89 °F
Wind: 6 mph from South

Location: Nimes / Garons

Current Time: Jun 30, 2015 at 10:31:25 PM

Latest Report: Jun 30, 2015 at 10:00 PM


Visibility: 10 mi

Pressure: 30.09 "Hg

Humidity: 78%

Dew point: 66 °F

Location of NîmesLocation

Historic Weather in Nîmes — Graph

°F

Nîmes temperature yesterday

Maximum temperature yesterday: 93 °F (at 4:30 PM)
Minimum temperature yesterday: 68 °F (at 5:00 AM)
Average temperature yesterday: 81 °F

Past Weeks' High & Low Weather Summary

 TemperatureHumidityPressure
High93 °F (Jun 27, 3:30 PM)100% (Jun 23, 6:00 AM)30.18 "Hg (Jun 23, 6:00 AM)
Low57 °F (Jun 25, 6:00 AM)22% (Jun 26, 4:30 PM)29.86 "Hg (Jun 23, 3:30 AM)
Average74 °F53%30.04 "Hg
* Reported Jun 15 9:00 PM — Jun 30 9:30 PM, Nîmes, Weather by CustomWeather, © 2015

Note: Actual official high and low records may vary slightly from our data, if they occured in-between our weather recording intervals... More about our weather records

Advertising

Nîmes weather history for previous 24 hours

 ConditionsComfort  
Time TempWeatherWind HumidityBarometerVisibility
9:30 PM
Tue, Jun 30
73 °FSunny.6 mph74%30.07 "Hg10 mi
9:00 PM75 °FPassing clouds.6 mph74%30.07 "HgN/A
8:30 PM77 °FPassing clouds.7 mph65%30.07 "HgN/A
8:00 PM79 °FPassing clouds.9 mph61%30.07 "HgN/A
7:00 PM82 °FPassing clouds.8 mph58%30.07 "HgN/A
6:30 PM82 °FPassing clouds.10 mph55%30.07 "HgN/A
6:00 PM84 °FPassing clouds.12 mph55%30.07 "HgN/A
5:00 PM86 °FPassing clouds.12 mph49%30.07 "HgN/A
4:30 PM86 °FPassing clouds.10 mph49%30.07 "HgN/A
4:00 PM86 °FPassing clouds.10 mph46%30.07 "HgN/A
3:00 PM86 °FPassing clouds.10 mph43%30.07 "HgN/A
2:30 PM86 °FPassing clouds.9 mph43%30.09 "HgN/A
2:00 PM86 °FPassing clouds.9 mph46%30.09 "HgN/A
1:30 PM84 °FPassing clouds.8 mph55%30.09 "HgN/A
1:00 PM84 °FPassing clouds.8 mph48%30.09 "HgN/A
12:30 PM84 °FPassing clouds.7 mph55%30.09 "HgN/A
12:00 PM82 °FPassing clouds.6 mph51%30.09 "HgN/A
11:30 AM82 °FSunny.3 mph55%30.09 "Hg10 mi
11:00 AM81 °FPassing clouds.6 mph54%30.09 "HgN/A
10:30 AM81 °FPassing clouds.5 mph51%30.09 "HgN/A
10:00 AM79 °FPassing clouds.5 mph54%30.09 "HgN/A
9:30 AM79 °FPassing clouds.5 mph54%30.09 "HgN/A
9:00 AM77 °FPassing clouds.5 mph57%30.09 "HgN/A
8:30 AM75 °FPassing clouds.5 mph65%30.09 "HgN/A
8:00 AM73 °FSunny.3 mph74%30.09 "Hg10 mi
7:30 AM70 °FSunny.3 mph83%30.09 "Hg10 mi
7:00 AM70 °FPassing clouds.6 mph78%30.07 "HgN/A
6:30 AM68 °FClear.7 mph83%30.07 "Hg10 mi
6:00 AM68 °FClear.5 mph88%30.07 "Hg10 mi
5:30 AM68 °FClear.5 mph94%30.07 "Hg4 mi
5:00 AM68 °FClear.3 mph88%30.07 "Hg5 mi
4:30 AM68 °FClear.3 mph94%30.07 "Hg10 mi
4:00 AM68 °FClear.5 mph88%30.07 "Hg10 mi
3:30 AM68 °FClear.2 mph88%30.07 "Hg10 mi
3:00 AM68 °FClear.3 mph83%30.07 "Hg10 mi
2:30 AM70 °FClear.6 mph78%30.07 "Hg10 mi
2:00 AM72 °FClear.3 mph73%30.09 "Hg10 mi
1:30 AM72 °FClear.1 mph73%30.09 "Hg10 mi
1:00 AM72 °FClear.2 mph73%30.09 "Hg10 mi
12:30 AM72 °FClear.5 mph78%30.09 "Hg10 mi
12:00 AM73 °FClear.3 mph69%30.09 "Hg10 mi
11:30 PM
Mon, Jun 29
73 °FClear.6 mph74%30.09 "Hg10 mi
11:00 PM72 °FClear.5 mph83%30.09 "Hg10 mi
10:30 PM73 °FClear.7 mph78%30.09 "Hg10 mi
10:00 PM75 °FSunny.6 mph74%30.09 "Hg10 mi
Weather by CustomWeather, © 2015

See weather overviewHow to use our weather pages